Showing default

HULIANWANG DIGUI-156, 68130

Orbit data source: Space-Track

HULIANWANG DIGUI-156, 68130 is a payload satellite owned by Zhongguo Xingwang (CN) in LEO that was launched on Thu, 12 Mar 2026 UTC via a CHANG ZHENG 8A launch vehicle from the Wenchang Satellite Launch Center (WSC). Payload-class satellites include a variety of spacecraft equipped with specific instruments for various scientific and technological missions. These include communications satellites like Starlink; space stations such as the ISS; scientific satellites like the Hubble; Earth observation satellites from companies like Planet Labs, Umbra, and HawkEye 360; GPS; miniature CubeSats for education and research; and military/defense satellites.

Loading next visibility...
Identifier
68130, 2026-047B
Orbit
LEO
Country
Flag of CNCN / PRC
Related business
Manufacturer
CAST?
Mission
Operational spacecraft
Bus & Motor
XINGWANG C, Unknown motor
Mass
~700 kg wet, ~700 kg dry
Launch date (UTC)
2026-03-12 (3 months ago)
Launch vehicle
CHANG ZHENG 8A
Launch site
Wenchang Satellite Launch Center (WSC)
Object type
Payload
Rocket body
Debris
Shape & HBR
Unknown shape, 1.8 m
Radar Cross Section
Large (>1 m²)

Expand to show TLE details & history
Last TLE update: 11 hours ago

TLE from 11 hours ago
0 HULIANWANG DIGUI-156
1 68130U 26047B   26171.37839454 -.00000086  00000-0  82363-4 0  9998
2 68130  50.0045  44.8678 0000601 107.4314 252.6624 13.29332665 13481
Epoch: 2026-06-20T09:04Z
TLE epoch observation values (Epoch: 2026-06-20T09:04:53.288Z)
Latitude
Longitude
0.05189°
Altitude
1,149.923 km
Speed
7.279 km/s
True Right ascension
02h 59m 28s
True Declination
0° 00' 00"
Sunlit
Object was in daylight at epoch
Visualization orbit readout
Latitude
Unknown
Longitude
Unknown
Altitude
Unknown
Speed
Unknown
Apparent Right ascension
Unknown
Apparent Declination
Unknown
Sunlit
N/A
Visualization observer readout
Local Sidereal Time
07:21:16
Azimuth
Unknown
Elevation
Unknown
Doppler factor
Unknown
Orbital elements
Apogee altitude
1,150.439 km
Perigee altitude
1,149.534 km
Semi-major axis
7,528.123 km
Eccentricity
0.00006
Inclination
50.0045°
RAAN
44.8678°
Arg. of periapsis
107.4314°
True anomaly
252.65583°
Mean anomaly
252.6624°
Eccentric anomaly
252.65911°
Mean motion
3.32287 °/min
Orbital period
108.34 mins
BSTAR
0.000082363
Loading maneuver chart data...
Computing Atmospheric mass density...
Loading historical data...
Loading historical data...
Loading historical data...
Loading historical data...
Loading historical data...
Loading historical data...
Loading historical data...

Documentation

Showing up to 5 results
|